Regional Weather Roundup
Issued by NWS Green Bay, WI

Home | Current Version | Previous Version | Text Only | Print | Product List | Glossary On
Versions: 1 2 3 4 5 6 7 8 9 10 11 12 13 14 15 16 17 18 19 20 21 22 23 24 25 26 27 28 29 30 31 32 33 34 35 36 37 38 39 40 41 42 43 44 45 46 47 48 49 50
000
ASUS43 KGRB 251259
RWRGRB

NORTH-CENTRAL AND NORTHEAST WISCONSIN REGIONAL WEATHER ROUNDUP
NATIONAL WEATHER SERVICE GREEN BAY WI
800 AM CDT SAT APR 25 2015

WIZ005-009-010>012-018-019-251400-
NORTH CENTRAL WISCONSIN

CITY           SKY/WX    TMP DP  RH WIND       PRES   REMARKS
IRONWOOD       CLOUDY    37  28  70 E6        29.94S
MANITOWISH WTR NOT AVBL
ARBOR VITAE    NOT AVBL
EAGLE RIVER    NOT AVBL
LAND O LAKES   NOT AVBL
RHINELANDER    MOSUNNY   37  17  44 E13       29.94S
PHILLIPS       MOSUNNY   39  18  43 E9        29.92R
ANTIGO         NOT AVBL
TOMAHAWK       NOT AVBL
MERRILL        NOT AVBL
$$

WIZ013-073-251400-
NORTHEAST WISCONSIN

CITY           SKY/WX    TMP DP  RH WIND       PRES   REMARKS
IRON MOUNTAIN  PTSUNNY   36  20  52 E6        29.97F
MARINETTE      PTSUNNY   37  25  60 E13G20    29.98R
$$

WIZ017-030-035>037-045-251400-
CENTRAL WISCONSIN

CITY           SKY/WX    TMP DP  RH WIND       PRES   REMARKS
MEDFORD        NOT AVBL
WAUSAU         CLOUDY    38  19  46 E9        29.90S
MOSINEE        CLOUDY    37  21  52 E9        29.91S
MARSHFIELD     CLOUDY    39  25  57 E13       29.89R
WISC RAPIDS    CLOUDY    39  26  59 E12       29.90S
STEVENS POINT  NOT AVBL
WAUPACA        CLOUDY    40  27  58 NE7       29.93S
SHAWANO        NOT AVBL
CLINTONVILLE   CLOUDY    37  23  56 E9        29.94R
$$

WIZ038-039-048-051-251400-
FOX VALLEY

CITY           SKY/WX    TMP DP  RH WIND       PRES   REMARKS
NWS GREEN BAY  CLOUDY    41  26  55 E12       29.95R
APPLETON       CLOUDY    39  21  48 NE12G18   29.92R
OSHKOSH        CLOUDY    40  30  67 NE12G21   29.90S
FOND DU LAC    CLOUDY    41  33  73 NE12      29.90R
$$

WIZ022-050-052-251400-
EAST CENTRAL WISCONSIN

CITY           SKY/WX    TMP DP  RH WIND       PRES   REMARKS
STURGEON BAY   CLOUDY    37  21  52 E10       29.98S
MANITOWOC      NOT AVBL
SHEBOYGAN      CLOUDY    39  29  67 NE16      29.90S
$$

LMZ563-521-522-541>543-251400-
LAKESHORE

STATION/POSITION TIME  TEMP    WIND        PRES    VSBY  WAVE
                       AIR SEA DIR/SP/G                  HT/PER
                 (UTC) (F)     (DEG/KT/KT) (MB)    (MI)  (FT/S)
SHEBOYGAN LKSHOR 1200   38      30/ 13/ 14 1013.6R
KEWAUNEE LKSHORE 1200   37      50/ 14/ 15 1013.5R
NORTHPORT PIER   1200   36      60/  9/ 11 1015.9R
SISTER BAY LKSHO 1200   38      40/  4/ 10   N/A
STURGEON BAY CG  1200   36      60/ 11     1015.1      6   2
CHAMBERS ISLAND  1200   36      30/  9/ 14 1015.6R
MENOMINEE LKSHOR 1200   37      30/ 15/ 18 1015.6R
$$



USA.gov is the U.S. government's official web portal to all federal, state and local government web resources and services.